SCP
1 1 1 0 0 0 0 0 0 0 0 0 0 0 0 0 0 0 1 1 1 1 0 0 0 0 0 0 0 0 0 0 0 0 0 0 0 0 0 0 0 0 0 0 0 0 0 0 0
1 1 1 0 0 0 0 0 0 0 0 0 0 0 0 0 0 1 1 1 1 1 0 0 0 0 0 0 0 0 0 0 0 0 -0 0 0 0 0 0 0 0 0 0 0 0 0 0 0
1 1 1 0 0 0 0 0 0 0 0 0 0 0 0 1 1 1 1 1 1 0 0 0 0 0 0 0 0 0 0 0 0 -0 -0 -0 0 0 0 0 0 0 0 0 0 0 0 0 0
1 1 1 0 0 0 0 0 0 0 0 0 0 0 1 1 1 1 1 1 1 0 0 0 0 0 0 0 0 0 0 -0 -0 -0 -0 -0 -0 -0 0 0 0 0 0 0 0 0 0 0 -0
1 1 0 0 0 0 0 0 0 0 0 0 0 1 1 1 1 1 1 1 1 1 0 0 0 0 0 0 -0 -0 -0 -0 -0 -0 -0 -0 -0 -0 -0 -0 -0 -0 -0 -0 -0 -0 -0 -0 -0
1 1 0 0 0 0 0 0 0 0 0 0 0 1 1 2 1 1 1 1 1 1 0 0 0 0 0 -0 -0 -0 -0 -0 -0 -0 -0 -0 -0 -0 -0 -0 -0 -0 -0 -0 -0 -0 -0 -0 -0
1 0 0 0 0 0 0 0 0 0 0 0 0 1 1 2 1 1 1 1 1 1 0 0 0 0 -0 -0 -0 -0 -0 -0 -0 -0 -0 -0 -0 -0 -0 -0 -0 -0 -0 -0 -0 -0 -0 0 0
0 0 0 0 0 0 0 0 0 0 0 0 1 1 1 2 2 2 2 2 1 1 1 0 0 -0 -0 -0 -0 -0 -0 -0 -0 -0 0 -0 -0 -0 -0 -0 0 0 0 -0 -0 -0 0 0 0
0 0 0 0 0 0 0 0 0 0 0 0 1 1 2 2 2 2 2 2 2 1 1 0 0 0 -0 -0 -0 -0 -0 -0 -0 -0 -0 -0 -0 -0 -0 0 0 0 0 0 0 0 0 0 0
0 0 0 0 0 0 0 0 0 0 0 0 1 1 1 1 2 2 3 2 2 2 1 1 0 0 0 0 -0 -0 -0 -0 -0 -0 -0 -0 -0 -0 0 0 0 0 0 0 0 0 0 0 0
0 0 0 0 0 0 0 0 0 0 0 0 1 1 1 1 2 2 2 2 2 2 1 1 1 0 0 0 0 0 0 -0 -0 -0 -0 -0 0 0 0 0 0 0 0 0 0 0 0 0 0
0 0 0 0 0 0 0 0 0 0 0 0 1 1 1 1 1 2 2 2 2 2 1 1 1 1 0 0 0 0 0 0 0 0 0 0 0 0 0 0 0 0 0 0 0 0 0 0 0
0 0 0 0 0 0 0 0 0 0 0 0 1 1 1 1 1 1 2 2 2 2 2 1 1 1 1 0 0 0 0 0 0 0 0 0 0 0 0 0 0 0 0 0 0 0 0 0 0
0 0 0 0 0 0 0 0 0 0 0 0 0 1 1 1 1 1 1 1 2 2 2 2 1 1 1 1 0 0 0 0 0 0 0 0 0 0 0 0 0 0 0 0 0 0 0 0 0
0 0 0 0 0 0 0 0 0 0 0 0 0 0 1 1 1 1 1 1 1 2 2 2 1 1 1 1 1 0 0 0 0 0 0 0 0 0 0 0 0 0 0 0 0 0 0 0 0
0 0 0 0 0 0 0 0 0 0 0 0 0 0 0 0 1 1 1 1 1 1 1 1 1 1 1 1 1 1 1 0 0 0 0 0 0 0 0 0 0 0 0 0 0 0 0 0 0
0 0 0 0 0 0 0 0 0 0 0 0 0 0 0 0 0 0 1 1 1 1 1 2 2 1 1 1 1 1 1 1 0 0 0 0 0 0 0 0 0 0 0 0 0 0 0 0 0
0 0 0 0 0 0 0 0 0 0 0 0 0 0 0 0 0 0 0 1 1 1 1 2 2 2 1 1 1 1 1 1 1 0 0 0 0 0 0 0 0 0 0 0 0 0 0 0 0
0 0 0 0 0 0 0 0 0 0 0 0 0 0 0 0 0 0 0 1 1 1 1 2 2 2 2 1 1 1 1 1 1 1 0 0 0 0 0 0 0 0 0 0 0 0 0 0 0
0 0 0 0 0 0 0 0 0 0 0 0 0 0 0 0 0 0 0 1 1 1 1 1 2 2 2 2 1 1 1 1 1 1 0 0 0 0 0 0 0 0 0 0 0 0 0 0 0
0 0 0 0 0 0 0 0 0 0 0 0 0 0 0 0 0 0 0 1 1 1 1 1 2 2 2 2 2 1 1 1 1 1 1 0 0 0 0 0 0 0 0 0 0 0 0 0 0
0 0 0 0 0 0 0 0 0 0 0 0 0 0 0 0 0 0 0 0 1 1 1 1 1 2 2 2 2 1 1 1 1 1 1 0 0 0 0 0 0 0 0 0 0 0 0 0 0
0 0 0 0 0 0 0 0 0 0 0 0 0 0 0 0 0 0 0 0 0 1 1 1 1 1 1 2 2 1 1 1 1 1 1 0 0 0 0 0 0 0 0 0 0 0 0 0 0
0 0 0 0 0 0 0 0 0 0 0 0 0 0 0 0 0 0 0 0 0 1 1 1 1 1 1 1 1 1 1 1 1 1 0 0 0 0 0 0 0 0 0 0 0 0 0 0 0
0 0 0 0 0 0 0 0 0 0 0 0 0 0 0 0 0 0 0 0 0 0 0 1 1 1 1 1 1 1 1 1 1 1 0 0 0 0 0 0 0 0 0 0 0 0 0 0 0
0 0 0 0 0 0 0 0 0 0 0 0 0 0 0 0 0 0 0 0 0 0 0 0 0 0 0 1 1 1 1 1 0 0 0 0 0 0 0 0 0 0 0 0 0 0 0 0 0
0 0 0 0 0 0 0 0 0 0 0 0 0 0 0 0 0 0 0 0 0 0 0 0 0 0 0 0 0 1 0 0 0 0 0 0 0 0 0 0 0 0 0 0 0 0 0 0 0
0 0 0 0 0 0 0 0 0 0 0 0 0 0 0 0 0 0 0 0 0 0 0 0 0 0 0 0 0 0 0 0 0 0 0 0 0 0 0 0 0 0 0 0 0 0 0 0 0
0 0 0 0 0 0 0 0 0 0 0 0 0 0 0 0 0 0 0 0 0 0 0 0 0 0 0 0 0 0 0 0 0 0 0 0 0 0 0 0 0 0 0 0 0 0 0 0 0
0 0 0 0 0 0 0 0 0 0 0 0 0 0 0 0 0 0 0 0 0 0 0 0 0 0 0 0 0 0 0 0 0 0 0 0 0 0 0 0 0 0 0 0 0 0 0 0 0
Wind_Speed
11 11 7 3 3 5 11 11 10 7 5 1 5 4 6 9 6 10 7 15 20 19 18 17 17 17 17 17 16 15 14 13 13 13 13 13 14 14 15 15 16 16 17 17 16 16 16 16 15
9 10 5 3 6 9 11 12 11 5 2 5 3 2 2 8 8 8 9 17 20 19 17 16 17 17 18 17 16 15 14 13 13 13 13 13 14 14 15 15 16 16 16 16 15 15 15 15 14
10 10 5 4 8 12 11 12 9 3 5 2 1 1 3 7 7 6 11 18 18 17 15 17 17 18 17 17 15 14 14 13 12 12 13 13 14 15 15 15 16 15 15 15 14 14 14 14 13
5 4 5 7 14 15 13 8 7 6 4 1 2 3 6 6 4 8 14 16 18 16 15 17 16 17 17 16 15 14 14 13 12 12 13 13 14 15 15 15 15 14 14 13 13 14 13 13 12
4 4 7 10 16 15 12 7 3 7 7 5 5 4 6 3 5 11 11 14 16 16 16 16 16 17 16 16 15 14 13 13 12 12 13 14 15 15 15 14 14 13 13 12 13 13 13 12 10
4 4 8 13 17 15 11 5 2 5 6 7 5 4 5 1 7 8 9 12 14 16 16 15 16 15 15 15 14 13 13 13 12 12 14 14 15 15 14 13 13 12 12 12 12 12 11 11 9
5 6 10 14 15 14 12 6 4 5 6 5 3 4 7 4 7 7 8 11 14 16 15 13 12 13 14 14 13 12 12 11 11 12 14 13 13 13 13 12 12 11 11 11 10 10 10 9 8
4 4 11 14 14 13 9 7 5 4 2 2 1 3 8 7 7 7 7 9 13 14 14 13 11 11 10 10 12 12 11 11 11 12 12 12 11 11 11 10 10 10 10 9 9 9 8 7 5
3 5 10 14 12 10 7 6 5 2 2 3 6 9 11 11 9 7 6 8 10 12 12 12 12 11 10 10 11 10 10 10 11 10 12 10 7 7 7 9 9 8 9 8 8 7 6 5 4
5 7 13 12 8 5 4 4 4 3 4 5 8 11 12 11 10 9 8 9 10 11 11 10 11 10 10 10 8 7 7 7 7 7 8 6 5 6 8 10 9 8 7 7 6 6 5 4 3
7 10 11 10 4 3 2 2 3 4 5 7 10 12 11 11 10 9 8 9 9 10 9 9 9 9 9 7 7 5 4 5 6 9 8 4 5 6 6 4 4 5 6 4 4 4 4 4 3
9 11 10 8 3 2 3 4 4 5 3 3 8 11 10 10 9 10 10 9 9 9 9 9 9 9 9 7 5 5 4 4 4 6 6 4 3 4 5 4 5 5 4 4 4 4 5 3 3
11 10 9 5 3 3 5 6 5 4 2 2 6 8 9 9 8 7 8 9 8 9 9 9 9 9 8 7 5 5 5 4 4 4 5 5 4 3 4 3 4 4 3 4 4 3 3 2 2
6 7 6 4 4 4 6 6 5 5 4 4 5 6 7 7 8 7 7 8 8 8 9 8 8 8 7 6 5 4 4 4 4 4 4 5 4 3 3 3 3 2 2 3 3 3 2 2 1
5 4 5 6 6 4 4 8 10 8 6 6 6 6 7 7 6 6 7 7 8 8 8 8 8 8 8 7 6 4 4 4 4 4 4 4 4 4 3 2 3 2 2 3 2 2 1 1 1
3 4 6 7 8 7 5 9 11 8 7 7 7 7 7 7 7 6 6 6 6 7 8 8 7 8 8 7 6 4 4 4 4 4 4 5 5 5 4 3 3 3 3 2 2 1 1 2 2
4 6 8 7 9 7 9 8 8 10 9 8 7 7 7 7 8 7 6 6 6 7 8 9 7 7 7 6 5 5 4 4 4 4 4 4 5 5 4 3 3 3 2 2 2 2 2 2 2
6 7 9 8 8 10 10 9 8 9 10 9 8 7 8 8 8 8 7 6 5 6 7 8 8 7 6 5 4 3 3 3 3 3 4 5 4 5 4 3 3 3 2 2 2 2 2 2 2
4 6 8 8 6 9 11 11 9 8 8 8 8 8 8 8 7 7 7 7 6 6 6 8 8 7 6 5 5 4 4 3 3 3 4 4 4 5 4 3 3 3 3 3 3 3 3 3 2
5 6 6 4 5 7 8 10 9 8 8 8 8 8 8 8 7 7 7 7 7 7 6 7 8 8 7 6 5 4 4 3 3 3 3 4 4 4 3 4 3 3 3 3 3 2 2 2 2
4 5 5 4 3 5 4 8 11 10 9 9 8 8 7 8 9 8 8 7 7 6 6 6 7 7 7 7 5 4 3 2 3 3 3 3 3 3 3 3 3 2 2 3 3 2 3 3 3
3 3 3 3 3 4 6 4 10 13 13 12 10 9 8 8 7 8 9 8 7 6 5 6 6 6 7 7 6 6 5 4 4 3 3 3 3 2 2 2 2 2 1 2 2 2 2 3 3
1 2 2 3 4 3 6 5 6 11 13 14 12 11 9 8 7 7 8 9 8 7 6 5 5 6 6 6 7 7 5 4 3 4 4 4 3 3 2 2 1 1 1 2 2 2 2 2 3
1 1 1 2 2 5 8 7 6 8 13 13 13 12 11 10 8 7 6 8 7 6 5 5 5 5 5 6 6 6 6 6 5 5 5 4 3 3 3 2 1 1 1 1 1 2 2 2 3
3 2 2 3 4 6 8 7 7 5 6 7 9 10 9 9 9 8 8 8 7 7 6 5 5 5 5 5 5 5 5 6 6 5 4 4 3 2 3 2 1 1 1 1 1 2 2 2 2
5 4 2 3 4 3 6 7 5 2 3 2 1 3 3 4 5 7 8 8 8 8 7 6 6 6 5 5 5 4 4 3 3 4 4 3 3 3 3 2 2 1 0 0 1 1 1 1 2
3 5 3 3 4 2 4 4 4 3 3 2 2 3 3 4 5 6 6 6 8 8 8 7 6 6 5 5 5 5 4 4 4 4 4 3 3 3 3 3 2 2 1 0 0 1 1 0 0
2 2 1 3 2 3 5 6 4 6 5 4 3 3 4 3 4 5 5 5 6 7 7 7 7 6 5 5 5 5 5 5 5 4 4 4 4 3 3 2 2 2 1 1 0 0 1 1 1
6 3 4 3 3 2 2 0 3 3 4 4 3 2 3 3 3 3 4 5 6 6 6 6 6 6 6 6 6 6 5 5 5 4 4 4 4 3 3 2 2 2 2 1 1 1 1 2 1
6 7 5 3 3 3 1 1 2 5 4 4 4 3 4 4 3 4 5 6 6 6 6 6 6 6 6 6 6 6 5 5 5 5 5 5 4 3 3 3 3 3 2 2 2 2 2 2 2
Wind_Direction
287 267 255 245 230 227 234 238 242 232 213 72 35 10 24 42 58 113 137 125 125 131 137 138 135 133 131 128 125 123 120 116 113 110 107 101 97 97 97 97 95 93 91 89 87 87 87 86 85
284 269 247 229 226 223 222 228 236 228 92 69 53 354 46 77 75 109 128 125 129 132 140 140 137 136 133 130 129 127 123 119 115 111 109 105 101 100 98 97 95 93 91 90 89 88 88 88 86
272 264 238 214 229 227 222 209 219 161 78 78 134 314 34 72 95 112 122 129 130 134 141 136 139 137 135 133 131 128 124 120 116 113 111 109 106 102 100 98 96 94 92 92 92 91 90 90 87
252 231 235 227 223 230 242 224 180 145 118 169 189 121 77 39 69 117 126 133 132 136 133 137 140 138 137 135 133 130 125 122 120 118 116 112 109 106 104 102 101 98 96 95 94 93 92 90 86
245 223 219 225 226 226 237 256 165 154 156 186 221 134 84 32 86 118 136 136 135 134 132 142 140 140 139 137 134 131 128 126 124 122 120 117 113 111 109 108 106 104 101 98 96 94 93 91 86
220 218 212 216 220 224 225 228 225 191 174 178 199 150 95 115 115 133 144 135 133 130 134 142 140 139 139 137 134 132 131 130 129 127 123 119 118 116 114 114 113 109 104 100 98 97 94 92 85
220 218 221 217 217 219 216 192 207 213 188 173 185 130 117 126 124 144 144 137 130 131 136 142 143 140 138 136 134 133 131 130 129 127 123 119 120 121 121 118 117 114 109 104 101 101 100 96 87
234 235 230 225 220 219 206 182 193 230 174 101 40 118 132 138 134 143 143 133 131 134 140 147 149 147 143 138 135 131 129 128 124 123 124 122 124 127 128 122 118 117 115 111 107 107 108 106 102
252 236 223 220 221 221 197 183 189 225 99 79 62 71 116 132 132 135 134 127 133 140 146 152 154 154 150 146 139 133 132 131 127 127 135 138 141 140 140 126 124 123 123 122 121 123 130 136 147
201 224 227 225 237 250 212 184 187 193 160 131 102 100 120 133 140 149 152 146 146 148 152 155 157 155 151 147 147 148 148 148 154 148 160 177 162 141 130 130 134 136 138 139 147 159 173 184 191
203 226 238 244 266 296 295 218 204 202 183 156 136 135 139 146 153 159 163 160 157 156 156 158 155 152 147 147 159 157 154 165 175 160 178 174 131 125 129 141 141 149 158 166 174 190 219 221 192
229 236 241 260 309 299 266 262 229 231 192 139 128 136 144 153 162 167 169 168 166 163 161 159 154 152 150 152 157 153 153 170 164 161 172 154 139 150 158 162 170 174 184 180 186 210 214 217 198
233 238 241 256 286 279 260 244 242 227 196 143 130 141 150 160 164 169 170 168 167 167 165 162 157 154 153 150 154 157 154 162 153 152 163 149 144 164 161 164 162 180 174 168 199 223 198 201 230
232 241 234 227 241 241 251 261 246 223 195 171 151 155 159 164 164 165 168 170 173 172 167 163 160 156 154 154 159 161 154 155 143 145 167 156 156 164 153 168 160 181 169 174 194 222 184 203 237
255 244 239 221 222 216 229 245 236 230 210 187 182 179 169 171 171 171 170 171 172 170 169 170 166 163 163 164 168 160 152 155 149 157 174 168 166 156 151 173 164 181 178 184 199 243 190 225 221
220 209 219 212 210 208 210 236 229 227 224 207 191 192 185 178 182 182 170 168 166 161 167 173 175 171 169 168 167 161 163 163 155 158 170 174 174 160 159 175 181 190 182 178 184 220 217 229 223
199 203 209 206 206 204 209 240 232 219 218 218 210 199 192 187 187 183 174 170 167 164 166 168 171 173 173 171 168 168 166 164 158 157 164 173 175 164 162 180 193 189 181 181 192 204 212 231 241
192 203 211 207 198 208 216 232 237 219 209 214 217 213 203 197 193 180 173 167 168 167 166 164 168 175 172 167 163 161 167 166 156 154 162 168 170 169 171 181 197 189 176 187 196 209 223 229 238
244 230 226 221 203 210 221 230 230 226 207 212 217 217 211 205 197 175 163 162 163 167 167 168 170 172 166 162 168 168 178 169 160 162 166 172 171 175 177 180 197 193 184 195 205 204 218 230 227
245 241 224 215 207 217 234 237 234 233 219 213 217 220 214 204 197 175 164 160 165 171 174 169 171 171 168 169 169 167 164 166 167 163 172 176 172 173 180 189 193 191 189 204 215 208 204 222 197
229 233 227 220 200 228 247 252 237 234 233 227 222 222 218 207 199 180 169 165 166 171 174 172 172 169 167 162 153 145 145 147 162 172 177 182 171 173 178 190 194 198 194 206 213 206 201 220 229
239 262 238 224 194 215 204 240 227 218 218 221 220 218 220 215 208 185 170 169 171 173 166 169 168 165 163 158 159 161 165 174 181 171 168 161 156 151 154 168 179 193 200 216 224 216 219 214 232
254 311 241 225 229 257 215 235 248 211 210 212 212 212 213 210 204 187 172 168 167 163 160 166 163 166 166 164 166 170 169 172 161 150 153 158 154 148 144 150 168 191 200 216 228 235 237 225 224
186 256 235 250 244 245 218 219 255 216 206 203 204 207 207 204 196 185 166 155 152 148 148 157 161 165 164 164 166 173 173 164 160 160 161 161 154 147 142 139 141 140 152 209 234 241 244 240 239
204 169 159 188 209 235 203 209 241 233 204 194 193 200 202 196 183 173 165 158 152 151 157 158 159 163 161 159 164 168 166 163 165 162 164 157 152 141 144 142 146 142 174 239 242 240 246 245 243
204 209 209 210 207 222 191 215 236 209 143 141 162 181 184 181 169 170 169 164 162 161 161 163 163 163 158 153 152 138 137 141 139 133 125 128 123 124 124 130 133 126 128 252 245 240 242 240 242
191 219 248 294 278 229 214 229 223 144 139 160 187 199 207 193 176 171 163 162 160 160 161 161 159 157 152 143 131 125 125 124 121 117 112 111 112 119 119 120 117 107 97 63 259 224 211 147 152
249 281 222 229 248 234 217 216 215 174 174 169 187 193 190 171 160 161 158 154 153 153 150 149 151 149 140 135 129 125 123 121 117 114 115 113 107 103 112 120 121 116 110 103 124 132 94 108 97
188 210 232 238 260 259 230 267 21 115 117 124 124 104 120 134 135 133 137 134 132 133 135 137 138 133 130 127 121 117 112 106 104 107 107 106 106 109 110 104 103 100 89 71 86 103 103 115 104
210 211 212 226 253 259 284 288 25 75 80 87 91 94 94 103 116 126 127 130 132 138 143 141 139 134 132 127 120 118 111 107 106 104 100 98 99 96 93 89 89 84 75 64 77 85 83 99 108